Location: Frizzleburg
(41.0764°N, 80.4548°W)
Time: 03:12:10
(UTC+00:00)

COSMOS 2455 - Pass Details

Date: 17 November 2019
Orbit: 902 x 908 km, 67.1° (Epoch: 10 December)

Event Time Altitude Azimuth Distance (km) Brightness Sun altitude
Exits shadow 11:33:16 - 317° (NW) 3,036 5.0 -7.5°
Reaches altitude 10° 11:34:36 10° 311° (NW) 2,595 4.7 -7.3°
Maximum altitude 11:39:46 31° 252° (WSW) 1,538 3.7 -6.4°
Drops below altitude 10° 11:44:56 10° 192° (SSW) 2,577 5.3 -5.5°
Sets 11:47:41 0° 182° (S) 3,513 6.2 -5.0°
